SCP
-0 -0 -0 -0 -0 -0 -0 -0 -0 -0 -0 -0 -0 -0 -0 0 0 0 0 0 0 0 0 0 0 0 0 0 0 0 0 0 0
-0 -0 -0 -0 -0 -0 -0 -0 -0 -0 -0 -0 -0 -0 -0 -0 -0 -0 0 0 0 0 0 0 0 0 0 0 0 0 0 0 0
-0 -0 -0 -0 -0 -0 0 0 -0 -0 -0 -0 -0 -0 -0 0 0 0 0 0 0 0 0 0 0 0 0 0 0 0 0 0 0
0 -0 -0 -0 -0 -0 0 0 -0 -0 -0 -0 -0 -0 -0 0 0 0 0 0 0 0 0 0 0 0 0 0 0 0 0 0 0
0 0 0 -0 -0 -0 -0 -0 -0 -0 -0 -0 -0 -0 -0 0 0 0 0 0 0 0 0 0 0 0 0 0 0 0 0 0 0
0 0 0 -0 -0 -0 -0 -0 -0 -0 -0 -0 -0 -0 -0 0 0 0 0 0 0 0 0 0 0 0 0 0 0 0 0 0 0
0 0 0 0 -0 -0 -0 -0 -0 -0 -0 -0 -0 -0 -0 0 0 0 0 0 0 0 0 0 0 0 0 0 0 0 0 0 0
0 0 0 -0 -0 0 0 -0 0 0 0 0 0 0 0 0 0 0 0 0 0 0 0 0 0 0 0 0 0 0 0 0 0
0 0 0 0 0 -0 -0 -0 0 0 0 0 0 0 0 0 0 0 0 0 0 0 0 0 0 0 0 0 0 0 0 0 0
0 0 0 1 0 -0 0 1 0 0 0 0 0 0 0 0 0 0 0 0 0 0 0 0 0 0 0 0 0 0 0 0 0
0 1 1 0 0 0 0 0 0 0 0 0 0 0 0 0 0 0 0 0 0 0 0 0 0 0 0 0 0 0 0 0 0
0 1 1 1 1 0 0 0 0 0 0 0 0 0 0 0 0 0 0 0 0 0 0 0 0 0 0 0 0 0 0 0 0
0 1 0 -0 0 0 0 0 0 0 0 0 0 0 0 0 0 0 0 0 0 0 0 0 0 0 0 0 0 0 0 0 0
1 2 1 1 1 0 0 0 0 0 0 0 0 0 0 0 0 0 0 0 0 0 0 0 0 0 0 0 0 0 0 0 0
2 2 1 1 1 0 0 0 0 0 0 0 0 0 0 0 0 0 0 0 0 0 0 0 0 0 0 0 0 0 0 0 0
2 2 1 1 0 0 0 0 0 0 0 0 0 0 0 0 0 0 0 0 0 0 0 0 0 0 0 0 0 0 0 0 0
1 1 1 0 0 0 0 0 0 0 0 0 0 0 0 0 0 0 0 0 0 0 0 0 0 0 0 0 0 0 0 0 0
0 1 0 0 0 0 0 0 0 0 0 0 0 0 0 0 0 0 0 0 0 0 0 0 0 0 0 0 0 0 0 0 0
0 0 0 -0 0 0 0 0 0 0 0 0 0 0 0 0 0 0 0 0 0 0 0 0 0 0 0 0 0 0 0 0 0
0 0 0 0 0 0 0 0 0 0 0 0 0 0 0 0 0 0 0 0 0 0 0 -0 -0 0 0 0 0 0 0 0 0
Wind_Speed_500mb
53 64 70 67 68 77 76 66 61 58 50 47 48 50 45 40 32 30 29 24 24 25 27 26 25 24 25 28 27 28 27 24 22
43 57 63 72 66 72 77 69 64 64 52 38 43 46 42 40 34 32 29 25 24 23 24 23 23 25 27 28 26 23 19 15 14
36 43 52 57 59 64 73 73 68 67 52 37 35 46 38 38 35 32 30 28 24 21 20 21 22 23 24 24 18 12 8 8 9
38 43 50 51 54 55 61 76 74 67 56 45 40 40 38 33 28 30 29 24 21 18 18 19 21 22 18 13 8 5 5 5 6
43 34 46 54 52 54 58 71 77 68 60 50 44 40 35 29 29 31 27 25 21 19 16 18 18 12 7 2 2 4 5 4 3
46 40 39 46 52 58 59 71 74 69 61 52 46 39 36 32 29 29 28 24 21 16 14 13 8 4 4 7 9 10 11 12 12
46 51 52 56 60 63 66 76 80 75 66 57 50 43 39 34 35 28 25 22 18 13 10 9 9 9 11 14 14 14 17 19 18
41 54 58 66 71 71 72 79 81 77 68 63 52 44 44 35 32 32 27 20 14 9 9 11 12 12 15 16 17 16 17 16 18
57 65 65 68 73 73 74 82 85 78 70 59 49 40 41 35 36 35 26 18 11 11 13 17 17 17 18 18 19 16 13 11 11
67 60 58 63 69 70 76 84 84 80 63 30 35 40 38 37 39 33 25 18 15 18 21 21 21 21 21 19 17 13 9 8 5
64 57 59 62 68 72 79 88 88 77 49 41 33 46 41 43 41 33 26 20 21 25 27 26 24 25 24 21 19 15 9 9 11
49 58 60 63 68 76 87 91 87 73 58 51 50 61 55 50 46 34 27 24 27 30 29 31 31 28 28 27 21 17 15 11 12
33 47 60 68 71 76 87 93 90 74 62 64 61 67 60 51 44 32 26 26 30 32 30 33 35 33 27 22 18 12 10 12 11
27 47 57 68 70 74 89 95 90 73 69 73 66 64 54 48 41 31 27 30 34 35 38 38 37 33 28 22 16 10 6 1 2
31 46 55 61 62 75 89 90 83 77 74 64 63 57 54 49 42 36 34 36 39 41 41 38 35 33 31 25 19 17 16 11 10
22 36 44 46 56 69 75 82 79 57 52 54 66 57 52 47 42 38 37 42 44 45 40 34 31 29 26 22 17 20 24 23 17
18 24 39 48 48 54 72 74 38 44 61 66 63 54 48 47 41 39 40 43 41 43 42 38 33 27 22 18 16 16 18 20 22
23 36 41 41 38 37 41 42 54 66 66 67 58 54 47 45 38 37 44 44 42 44 39 32 25 19 20 23 21 19 21 23 22
27 33 31 40 38 42 33 72 62 65 66 56 54 52 46 44 40 41 41 40 41 43 38 31 25 20 17 16 16 17 20 24 27
30 34 48 50 41 44 50 66 61 61 50 44 51 47 45 39 39 41 41 42 42 44 37 33 30 26 22 20 22 21 28 32 35
Wind_Direction_500mb
224 212 213 221 224 223 223 219 219 212 217 213 216 215 221 228 238 235 236 249 250 250 265 274 286 293 300 303 309 313 312 304 304
216 216 216 219 220 222 220 216 214 210 210 209 212 214 216 225 236 240 248 243 238 251 263 267 279 291 301 308 309 310 307 314 321
208 209 205 209 217 219 218 215 209 209 212 219 220 211 219 217 221 230 238 235 238 237 246 262 280 294 299 303 310 318 331 337 336
215 201 206 212 214 218 219 212 207 208 212 218 212 204 209 207 225 228 229 227 226 238 257 274 284 287 292 302 314 345 8 359 340
214 226 215 217 218 215 215 210 205 208 206 209 200 201 203 202 222 223 219 228 230 235 248 265 273 277 271 250 148 122 93 69 12
216 212 209 208 206 210 210 205 201 198 197 197 194 198 202 201 209 205 209 214 216 232 249 254 241 220 169 148 131 107 93 83 79
205 203 208 208 203 204 207 203 198 196 197 197 196 199 203 200 199 198 196 208 221 229 224 199 178 162 151 139 129 112 97 94 96
192 195 203 207 203 201 203 199 196 197 198 194 196 199 194 201 200 198 198 207 219 221 191 176 165 155 148 137 127 123 118 101 85
210 203 206 204 202 199 200 197 194 196 191 191 191 195 197 201 200 197 197 206 215 198 180 164 158 158 149 135 131 133 130 111 89
213 212 201 198 201 200 197 193 193 185 183 170 204 200 202 209 204 198 200 207 206 187 174 162 155 155 149 137 137 142 160 160 151
228 220 202 200 200 196 195 192 188 188 162 174 205 213 218 213 203 202 206 210 197 187 176 165 157 155 148 140 126 119 131 180 194
248 226 220 213 204 198 193 192 188 186 171 179 199 202 209 211 206 206 215 206 193 186 180 170 158 153 149 141 129 107 89 104 156
252 238 228 213 203 198 195 192 188 183 183 188 199 198 198 204 207 214 218 208 193 185 176 173 169 165 166 160 149 128 87 75 83
265 242 222 210 203 198 198 193 187 188 195 196 195 186 189 198 210 212 208 201 190 183 175 175 179 183 192 194 187 187 189 187 9
231 211 203 205 197 200 201 191 188 196 196 193 186 187 188 190 199 199 198 195 189 183 188 189 196 201 205 208 209 220 234 242 257
199 200 203 202 207 206 192 191 194 201 204 193 185 188 191 193 192 196 194 194 191 187 192 193 193 196 205 218 229 238 237 238 246
196 193 188 194 202 200 194 190 186 219 211 195 187 186 193 197 194 189 191 193 196 196 193 190 196 205 214 212 215 222 221 227 236
184 182 194 196 197 191 196 197 209 203 207 194 189 190 190 195 194 197 192 195 198 195 192 198 212 220 234 242 229 220 234 234 244
205 196 194 160 153 165 207 220 210 206 195 194 198 190 193 194 196 192 192 197 196 196 198 207 216 209 206 203 193 206 231 249 258
242 218 193 189 193 192 195 204 199 197 187 200 206 202 193 193 195 191 188 188 193 195 203 209 204 207 222 241 253 257 266 269 269
Wind_Speed_850mb
53 64 70 67 68 77 76 66 61 58 50 47 48 50 45 40 32 30 29 24 24 25 27 26 25 24 25 28 27 28 27 24 22
43 57 63 72 66 72 77 69 64 64 52 38 43 46 42 40 34 32 29 25 24 23 24 23 23 25 27 28 26 23 19 15 14
36 43 52 57 59 64 73 73 68 67 52 37 35 46 38 38 35 32 30 28 24 21 20 21 22 23 24 24 18 12 8 8 9
38 43 50 51 54 55 61 76 74 67 56 45 40 40 38 33 28 30 29 24 21 18 18 19 21 22 18 13 8 5 5 5 6
43 34 46 54 52 54 58 71 77 68 60 50 44 40 35 29 29 31 27 25 21 19 16 18 18 12 7 2 2 4 5 4 3
46 40 39 46 52 58 59 71 74 69 61 52 46 39 36 32 29 29 28 24 21 16 14 13 8 4 4 7 9 10 11 12 12
46 51 52 56 60 63 66 76 80 75 66 57 50 43 39 34 35 28 25 22 18 13 10 9 9 9 11 14 14 14 17 19 18
41 54 58 66 71 71 72 79 81 77 68 63 52 44 44 35 32 32 27 20 14 9 9 11 12 12 15 16 17 16 17 16 18
57 65 65 68 73 73 74 82 85 78 70 59 49 40 41 35 36 35 26 18 11 11 13 17 17 17 18 18 19 16 13 11 11
67 60 58 63 69 70 76 84 84 80 63 30 35 40 38 37 39 33 25 18 15 18 21 21 21 21 21 19 17 13 9 8 5
64 57 59 62 68 72 79 88 88 77 49 41 33 46 41 43 41 33 26 20 21 25 27 26 24 25 24 21 19 15 9 9 11
49 58 60 63 68 76 87 91 87 73 58 51 50 61 55 50 46 34 27 24 27 30 29 31 31 28 28 27 21 17 15 11 12
33 47 60 68 71 76 87 93 90 74 62 64 61 67 60 51 44 32 26 26 30 32 30 33 35 33 27 22 18 12 10 12 11
27 47 57 68 70 74 89 95 90 73 69 73 66 64 54 48 41 31 27 30 34 35 38 38 37 33 28 22 16 10 6 1 2
31 46 55 61 62 75 89 90 83 77 74 64 63 57 54 49 42 36 34 36 39 41 41 38 35 33 31 25 19 17 16 11 10
22 36 44 46 56 69 75 82 79 57 52 54 66 57 52 47 42 38 37 42 44 45 40 34 31 29 26 22 17 20 24 23 17
18 24 39 48 48 54 72 74 38 44 61 66 63 54 48 47 41 39 40 43 41 43 42 38 33 27 22 18 16 16 18 20 22
23 36 41 41 38 37 41 42 54 66 66 67 58 54 47 45 38 37 44 44 42 44 39 32 25 19 20 23 21 19 21 23 22
27 33 31 40 38 42 33 72 62 65 66 56 54 52 46 44 40 41 41 40 41 43 38 31 25 20 17 16 16 17 20 24 27
30 34 48 50 41 44 50 66 61 61 50 44 51 47 45 39 39 41 41 42 42 44 37 33 30 26 22 20 22 21 28 32 35
Wind_Direction_850mb
224 212 213 221 224 223 223 219 219 212 217 213 216 215 221 228 238 235 236 249 250 250 265 274 286 293 300 303 309 313 312 304 304
216 216 216 219 220 222 220 216 214 210 210 209 212 214 216 225 236 240 248 243 238 251 263 267 279 291 301 308 309 310 307 314 321
208 209 205 209 217 219 218 215 209 209 212 219 220 211 219 217 221 230 238 235 238 237 246 262 280 294 299 303 310 318 331 337 336
215 201 206 212 214 218 219 212 207 208 212 218 212 204 209 207 225 228 229 227 226 238 257 274 284 287 292 302 314 345 8 359 340
214 226 215 217 218 215 215 210 205 208 206 209 200 201 203 202 222 223 219 228 230 235 248 265 273 277 271 250 148 122 93 69 12
216 212 209 208 206 210 210 205 201 198 197 197 194 198 202 201 209 205 209 214 216 232 249 254 241 220 169 148 131 107 93 83 79
205 203 208 208 203 204 207 203 198 196 197 197 196 199 203 200 199 198 196 208 221 229 224 199 178 162 151 139 129 112 97 94 96
192 195 203 207 203 201 203 199 196 197 198 194 196 199 194 201 200 198 198 207 219 221 191 176 165 155 148 137 127 123 118 101 85
210 203 206 204 202 199 200 197 194 196 191 191 191 195 197 201 200 197 197 206 215 198 180 164 158 158 149 135 131 133 130 111 89
213 212 201 198 201 200 197 193 193 185 183 170 204 200 202 209 204 198 200 207 206 187 174 162 155 155 149 137 137 142 160 160 151
228 220 202 200 200 196 195 192 188 188 162 174 205 213 218 213 203 202 206 210 197 187 176 165 157 155 148 140 126 119 131 180 194
248 226 220 213 204 198 193 192 188 186 171 179 199 202 209 211 206 206 215 206 193 186 180 170 158 153 149 141 129 107 89 104 156
252 238 228 213 203 198 195 192 188 183 183 188 199 198 198 204 207 214 218 208 193 185 176 173 169 165 166 160 149 128 87 75 83
265 242 222 210 203 198 198 193 187 188 195 196 195 186 189 198 210 212 208 201 190 183 175 175 179 183 192 194 187 187 189 187 9
231 211 203 205 197 200 201 191 188 196 196 193 186 187 188 190 199 199 198 195 189 183 188 189 196 201 205 208 209 220 234 242 257
199 200 203 202 207 206 192 191 194 201 204 193 185 188 191 193 192 196 194 194 191 187 192 193 193 196 205 218 229 238 237 238 246
196 193 188 194 202 200 194 190 186 219 211 195 187 186 193 197 194 189 191 193 196 196 193 190 196 205 214 212 215 222 221 227 236
184 182 194 196 197 191 196 197 209 203 207 194 189 190 190 195 194 197 192 195 198 195 192 198 212 220 234 242 229 220 234 234 244
205 196 194 160 153 165 207 220 210 206 195 194 198 190 193 194 196 192 192 197 196 196 198 207 216 209 206 203 193 206 231 249 258
242 218 193 189 193 192 195 204 199 197 187 200 206 202 193 193 195 191 188 188 193 195 203 209 204 207 222 241 253 257 266 269 269